OpenBCM V1.08-5-g2f4a (Linux)

Packet Radio Mailbox

IZ3LSV

[San Dona' di P. JN]

 Login: GUEST





  
I0OJJ  > KEPS     23.03.25 02:25l 328 Lines 15599 Bytes #3 (0) @ AMSAT
BID : ORB25082.1
Read: GUEST
Subj: 2Line Orbital Elements 25082.AMSAT
Path: IZ3LSV<I0OJJ
Sent: 250323/0025z @:I0OJJ.ITA.EU [Rome] obcm1.08-6-g5b69
From: I0OJJ @ I0OJJ.ITA.EU (Gustavo)
To:   KEPS @ AMSAT
X-Info: This message was generated automatically


QST de W1STR

AMSAT Orbital Elements for Amateur Satellites in TLE Format
From Orbital Analysis Office
New England Sci-Tech STEM Education Center
Natick, MA March 23, 2025
To all radio amateurs


These element sets describe the orbits of various satellites 
in use by the amateur radio community. For details see:
www.amsat.org/keplerian-elements-formats/

A daily update of element sets is available at:
www.amsat.org/tle/daily-bulletin.txt
or without bulletin text:
www.amsat.org/tle/dailytle.txt


AO-07
1 07530U 74089B   25081.57872660 -.00000017  00000-0  18517-3 0  9994
2 07530 101.9955  84.9969 0011875 272.9464 207.4196 12.53687400303920
UO-11
1 14781U 84021B   25081.45087856  .00006078  00000-0  65173-3 0  9991
2 14781  97.7457  49.4453 0006365 230.1901 129.8756 14.88976664189866
AO-27
1 22825U 93061C   25081.61462919  .00000469  00000-0  19638-3 0  9991
2 22825  98.7461 142.7451 0008093 352.1171   7.9883 14.30756382642422
FO-29
1 24278U 96046B   25081.78894115  .00000009  00000-0  45203-4 0  9994
2 24278  98.5838 346.0260 0349839 186.5432 173.1075 13.53241299412361
NOAA-15
1 25338U 98030A   25081.85707358  .00000625  00000-0  27491-3 0  9999
2 25338  98.5442 108.8536 0009486 224.8047 135.2368 14.26918708397171
GO-32
1 25397U 98043D   25081.52090810  .00000444  00000-0  21249-3 0  9994
2 25397  98.9636  59.0203 0002355  81.8958 278.2487 14.24278856387038
ISS
1 25544U 98067A   25081.85217783  .00033950  00000-0  60358-3 0  9992
2 25544  51.6369  14.6407 0003837  40.9391 319.1885 15.49840730501777
NO-44
1 26931U 01043C   25081.07812204  .00000657  00000-0  27735-3 0  9994
2 26931  67.0524 333.3864 0005644 267.5958  92.4498 14.31665835225724
SO-50
1 27607U 02058C   25081.43824873  .00006558  00000-0  84156-3 0  9993
2 27607  64.5536  84.7671 0047209 353.2493   6.7970 14.81203240197503
CO-55
1 27844U 03031E   25081.55951651  .00001323  00000-0  59612-3 0  9990
2 27844  98.6795  90.8459 0010704  60.8147 299.4101 14.23890928127398
CO-57
1 27848U 03031J   25081.47133295  .00001115  00000-0  51164-3 0  9994
2 27848  98.6821  90.8235 0010723  76.3400 283.8972 14.23240498127113
RS-22
1 27939U 03042A   25081.83908197  .00005170  00000-0  83099-3 0  9995
2 27939  98.3200 249.4316 0010526 257.6886 208.8500 14.72000435149248
NOAA-18
1 28654U 05018A   25081.84219447  .00000602  00000-0  34284-3 0  9996
2 28654  98.8453 162.1980 0013850 357.4641   2.6459 14.13551652 22629
CO-58
1 28895U 05043F   25081.80789611  .00007892  00000-0  13060-2 0  9998
2 28895  98.2355 225.2509 0014777 192.9814 167.1013 14.70513847 35592
CO-65
1 32785U 08021C   25081.16154565  .00019375  00000-0  14367-2 0  9993
2 32785  97.7784  51.8434 0012727 113.7834 246.4727 15.03062799917214
AAUSAT2
1 32788U 08021F   25081.50492976  .00269589  00000-0  34060-2 0  9991
2 32788  97.6060  75.3186 0004744 126.4105 233.7588 15.58624740920959
CO-66
1 32791U 08021J   25081.50973693  .00038210  00000-0  19991-2 0  9996
2 32791  97.7232  59.9662 0007121  85.5776 274.6269 15.15714189918589
RS-30
1 32953U 08025A   25081.85424321  .00000053  00000-0  31241-3 0  9994
2 32953  82.4975 276.1513 0018986 215.5673 144.4142 12.43160518763754
NOAA-19
1 33591U 09005A   25081.83575625  .00000566  00000-0  32589-3 0  9999
2 33591  99.0057 146.0738 0013202 222.6736 137.3411 14.13318231830983
SRMSAT
1 37841U 11058D   25081.62546110  .00000824  00000-0  30444-3 0  9991
2 37841  19.9719 272.3279 0011693 276.5937 135.6326 14.11391950693943
ZACUBE-1
1 39417U 13066B   25081.60250932  .00018664  00000-0  16577-2 0  9996
2 39417  97.7713  39.1341 0043900 317.8283  41.9563 14.95441503613104
Delfi-N3xt
1 39428U 13066N   25081.53040431  .00023143  00000-0  24337-2 0  9992
2 39428  97.8359   0.1509 0085293 260.5794  98.5772 14.86733503607320
GOMX-1
1 39430U 13066Q   25081.86694478  .00007479  00000-0  11666-2 0  9992
2 39430  97.6953 305.3345 0135014  84.3680 277.2904 14.67150537603869
LO-74
1 39440U 13066AA  25081.40852011  .00017618  00000-0  18109-2 0  9997
2 39440  97.8420  26.6047 0065566  81.4031 279.4608 14.88791420609658
AO-73
1 39444U 13066AE  25081.44823770  .00026081  00000-0  20344-2 0  9993
2 39444  97.7624  43.2297 0039473 295.2708  64.4427 15.00513298611714
DTUSAT-2
1 40030U 14033W   25081.57203401  .00024220  00000-0  16378-2 0  9993
2 40030  98.0487  49.6968 0008450 342.7752  17.3186 15.06511412584496
EO-80
1 40032U 14033Y   25081.46343952  .00024424  00000-0  16484-2 0  9993
2 40032  98.0361  49.3467 0006624 268.2984  91.7484 15.06592355584458
LILACSAT-2
1 40908U 15049K   25081.81035767  .00031051  00000-0  87451-3 0  9991
2 40908  97.5145 100.3564 0011897  85.8301 274.4302 15.36327537526124
IO-86
1 40931U 15052B   25038.81889873  .00001817  00000-0  15548-3 0  9993
2 40931   6.0001 108.1159 0012838 187.7041 172.2889 14.78568669506492
Horyu-4
1 41340U 16012D   25081.85462294  .00056851  00000-0  17646-2 0  9999
2 41340  30.9977 299.7082 0008665 327.8270  32.1845 15.32091388500682
Lapan A3
1 41603U 16040E   25081.86224246  .00009413  00000-0  33589-3 0  9993
2 41603  97.1404  89.5906 0011113 179.8221 180.3026 15.29019639485759
CAS-2T
1 41847U 16066G   25081.79320542  .00004548  00000-0  65179-3 0  9993
2 41847  98.4251 156.9345 0348049  56.9352 306.4757 14.43202289439650
CAS-4B
1 42759U 17034B   25081.81042835  .00095803  00000-0  15248-2 0  9996
2 42759  43.0103  67.6767 0016007 101.4436 258.8224 15.52115770430318
CAS-4A
1 42761U 17034D   25081.82727929  .00098836  00000-0  15356-2 0  9993
2 42761  43.0140  65.3628 0017428 107.1088 253.1683 15.52742505430338
TechnoSat
1 42829U 17042E   25081.46788406  .00012131  00000-0  95526-3 0  9996
2 42829  97.3912 253.9739 0012997 184.6082 175.5025 15.00873779418851
AO-91
1 43017U 17073E   25081.55137936  .00023579  00000-0  12352-2 0  9999
2 43017  97.5386 314.3603 0180261  75.6722 286.4442 15.02763855397339
S-Net D
1 43186U 18014G   25081.31254310  .00017624  00000-0  10687-2 0  9995
2 43186  97.5690 345.0615 0010849 129.1775 231.0420 15.10562817390402
S-Net B
1 43187U 18014H   25081.25072497  .00018032  00000-0  10936-2 0  9994
2 43187  97.5693 344.9682 0011613 125.6653 234.5659 15.10544737390395
S-Net A
1 43188U 18014J   25081.44568026  .00018504  00000-0  11212-2 0  9996
2 43188  97.5702 345.3009 0011543 125.8079 234.4225 15.10572894390428
S-Net C
1 43189U 18014K   25081.25295525  .00017676  00000-0  10718-2 0  9996
2 43189  97.5719 345.1107 0013229 120.4062 239.8477 15.10539929388944
Ten-Koh
1 43677U 18084G   25081.03064534  .00008450  00000-0  68499-3 0  9995
2 43677  98.0974 250.1131 0010549 171.4352 188.7052 14.99912731348317
PO-101
1 43678U 18084H   25081.77331164  .00008992  00000-0  77135-3 0  9991
2 43678  98.0999 254.9365 0008287 178.7617 181.3626 14.97722818348584
QO-100
1 43700U 18090A   25081.18860984  .00000148  00000-0  00000-0 0  9995
2 43700   0.0175 207.4207 0001443 185.7581 240.4730  1.00269759 23147
MinXSS-2
1 43758U 18099A   25081.61657468  .00042593  00000-0  18452-2 0  9998
2 43758  97.5107 147.5445 0013514  78.8242 281.4512 15.22179769344949
AO-95
1 43770U 18099N   25081.13029831  .00032144  00000-0  17139-2 0  9998
2 43770  97.5016 140.1622 0012543 126.7302 233.5084 15.15037018344516
RANGE-A
1 43773U 18099R   25081.87015806  .00016932  00000-0  11019-2 0  9997
2 43773  97.4597 132.5635 0013337 102.3911 257.8811 15.07955881344356
MOVE-II
1 43780U 18099Y   25081.72607604  .00173638  00000-0  31017-2 0  9999
2 43780  97.4741 153.0323 0002482 105.7186 254.4338 15.49395882345495
SNUSat 2
1 43782U 18099AA  25081.08993412  .00019088  00000-0  10879-2 0  9996
2 43782  97.4709 137.5006 0013693  73.1425 287.1307 15.12756717344470
SnugLite
1 43784U 18099AC  25081.70522059  .00028241  00000-0  14951-2 0  9998
2 43784  97.4522 137.5235 0004719  81.5780 278.5987 15.15376455344686
ITASat 1
1 43786U 18099AE  25081.60948530  .00021565  00000-0  12745-2 0  9996
2 43786  97.4676 137.7370 0016479 118.0107 242.2792 15.11385259344528
EAGLET 1
1 43790U 18099AJ  25081.88655403  .00015506  00000-0  10077-2 0  9999
2 43790  97.4873 138.1992 0013959  99.9185 260.3619 15.08019870344203
ESEO
1 43792U 18099AL  25081.87939572  .00007143  00000-0  54622-3 0  9995
2 43792  97.4599 132.4728 0012369  73.2257 287.0324 15.02150941344009
CSIM
1 43793U 18099AM  25081.44672154  .00197673  00000-0  34681-2 0  9999
2 43793  97.4931 154.8283 0003887  52.2036 307.9566 15.49817119345291
JO-97
1 43803U 18099AX  25081.63802483  .00033115  00000-0  16163-2 0  9997
2 43803  97.4766 141.5132 0008743  69.2195 290.9975 15.18175905344789
Suomi 100
1 43804U 18099AY  25081.13890859  .00032006  00000-0  16532-2 0  9995
2 43804  97.4832 140.5194 0014023  69.1101 291.1632 15.16144173344655
ISAT
1 43879U 18111D   25081.25778798  .00057197  00000-0  22424-2 0  9997
2 43879  97.5992 354.1130 0012231 111.2008 249.0538 15.25484542341585
UWE-4
1 43880U 18111E   25081.51078930  .00043596  00000-0  18743-2 0  9996
2 43880  97.5934 353.3519 0014989 121.5208 238.7494 15.22415039341581
Sparrow
1 43881U 18111F   25081.49462832  .00056516  00000-0  21504-2 0  9997
2 43881  97.6132 356.9468 0009128 139.6665 220.5252 15.26515700341706
Prox-1
1 44339U 19036A   25081.60902076  .00029623  00000-0  40130-2 0  9990
2 44339  23.9964 219.7103 0006283 252.1409 107.8402 14.77517309306312
SONATE
1 44400U 19038Q   25081.59204306  .00156248  00000-0  15048-2 0  9994
2 44400  97.7060  99.6266 0009941 163.4321 196.7265 15.65974846317118
Taurus 1
1 44530U 19059C   25081.84880829  .00025689  00000-0  48838-2 0  9996
2 44530  98.5953 217.6374 0009726 270.7310  89.2776 14.64065403292411
